CW0641 Weather Reports


Display with metric or nautical units.
time (UTC)temp
F
wind
direction
speed
MPH
gust
MPH
rain 1hr
in
rain 24hr
in
rain mn
in
humidity
%
barometer
mb
20260509204927 65 297 4.0 8.0 0.00 0.00 0.00 50 1016.2
20260509204255 66 320 5.0 10.0 0.00 0.00 0.00 49 1016.2
20260509203924 66 336 5.0 11.0 0.00 0.00 0.00 48 1016.2
20260509203257 66 12 4.0 11.0 0.00 0.00 0.00 47 1016.2
20260509202921 65 0 4.0 9.0 0.00 0.00 0.00 47 1016.2
20260509202256 65 329 3.0 9.0 0.00 0.00 0.00 48 1016.2
20260509201921 65 330 3.0 9.0 0.00 0.00 0.00 49 1016.2
20260509201255 65 319 3.0 6.0 0.00 0.00 0.00 51 1016.2
20260509200918 64 306 3.0 8.0 0.00 0.00 0.00 52 1016.2
20260509195919 64 309 2.0 6.0 0.00 0.00 0.00 55 1016.2
20260509195249 64 325 2.0 7.0 0.00 0.00 0.00 56 1016.0
20260509194915 64 317 3.0 8.0 0.00 0.00 0.00 57 1016.1
20260509193245 64 311 3.0 8.0 0.00 0.00 0.00 61 1016.2
20260509192909 64 294 3.0 8.0 0.00 0.00 0.00 62 1016.2
20260509191908 64 304 3.0 8.0 0.00 0.00 0.00 65 1016.2
20260509190906 64 290 3.0 5.0 0.00 0.00 0.00 67 1016.2
20260509190238 63 0 3.0 8.0 0.00 0.00 0.00 68 1016.2
20260509185905 64 332 3.0 8.0 0.00 0.00 0.00 69 1016.2
20260509185230 64 322 3.0 8.0 0.00 0.00 0.00 70 1016.2
20260509184904 64 299 2.0 5.0 0.00 0.00 0.00 70 1016.2
20260509184231 64 320 2.0 8.0 0.00 0.00 0.00 70 1016.2
20260509183900 64 0 3.0 8.0 0.00 0.00 0.00 69 1016.1
20260509183227 65 342 2.0 6.0 0.00 0.00 0.00 69 1016.2
20260509182857 65 315 2.0 7.0 0.00 0.00 0.00 68 1016.2
20260509182230 65 332 3.0 9.0 0.00 0.00 0.00 67 1016.2
20260509181858 65 296 3.0 9.0 0.00 0.00 0.00 67 1016.2
20260509181221 65 296 3.0 6.0 0.00 0.00 0.00 66 1016.2
20260509180856 65 5 3.0 8.0 0.00 0.00 0.00 65 1016.3
20260509180221 66 321 3.0 8.0 0.00 0.00 0.00 65 1016.2
20260509175219 66 9 4.0 9.0 0.00 0.00 0.00 63 1016.1
20260509174853 66 343 5.0 9.0 0.00 0.00 0.00 63 1016.1
20260509174220 66 314 5.0 9.0 0.00 0.00 0.00 62 1016.0
20260509173854 66 346 5.0 9.0 0.00 0.00 0.00 62 1016.0
20260509173219 67 323 4.0 8.0 0.00 0.00 0.00 61 1016.0
20260509172850 67 329 4.0 8.0 0.00 0.00 0.00 61 1015.8
20260509171844 67 314 5.0 10.0 0.00 0.00 0.00 60 1015.8
20260509171224 67 311 5.0 10.0 0.00 0.00 0.00 60 1015.7
20260509170848 68 0 5.0 10.0 0.00 0.00 0.00 59 1015.7
20260509170211 68 337 6.0 11.0 0.00 0.00 0.00 58 1015.7
20260509165845 68 334 6.0 11.0 0.00 0.00 0.00 56 1015.7
20260509165211 69 323 5.0 10.0 0.00 0.00 0.00 55 1015.5
20260509164847 69 300 4.0 10.0 0.00 0.00 0.00 53 1015.5
20260509164211 69 329 4.0 9.0 0.00 0.00 0.00 51 1015.5
20260509163210 70 292 5.0 10.0 0.00 0.00 0.00 49 1015.5
20260509162843 70 336 5.0 11.0 0.00 0.00 0.00 48 1015.4
20260509161837 71 313 6.0 13.0 0.00 0.00 0.00 46 1015.3
20260509161159 71 19 7.0 15.0 0.00 0.00 0.00 45 1015.1
20260509160154 71 13 6.0 14.0 0.00 0.00 0.00 45 1015.1
20260509155833 71 313 6.0 12.0 0.00 0.00 0.00 45 1015.1
20260509154833 72 345 5.0 14.0 0.00 0.00 0.00 45 1015.1
20260509154155 72 317 6.0 12.0 0.00 0.00 0.00 45 1015.0
20260509153152 73 326 7.0 13.0 0.00 0.00 0.00 45 1015.1
20260509152827 73 0 7.0 14.0 0.00 0.00 0.00 44 1015.0
20260509151149 74 324 7.0 13.0 0.00 0.00 0.00 44 1014.9
20260509150830 74 355 7.0 16.0 0.00 0.00 0.00 44 1014.7
20260509145142 75 336 7.0 13.0 0.00 0.00 0.00 45 1014.7
20260509144822 75 339 6.0 13.0 0.00 0.00 0.00 46 1014.6
20260509144147 75 341 6.0 11.0 0.00 0.00 0.00 46 1014.6
20260509143824 75 299 6.0 11.0 0.00 0.00 0.00 47 1014.6
20260509143140 75 32 5.0 13.0 0.00 0.00 0.00 47 1014.6
20260509142824 76 26 6.0 13.0 0.00 0.00 0.00 48 1014.6
20260509142133 76 343 7.0 12.0 0.00 0.00 0.00 49 1014.5
20260509141818 76 355 6.0 13.0 0.00 0.00 0.00 50 1014.5
20260509140815 76 309 6.0 13.0 0.00 0.00 0.00 51 1014.6
20260509140128 76 330 6.0 14.0 0.00 0.00 0.00 52 1014.4
20260509135816 76 313 6.0 14.0 0.00 0.00 0.00 53 1014.6
20260509135127 77 0 6.0 13.0 0.00 0.00 0.00 52 1014.5
20260509134814 77 48 6.0 11.0 0.00 0.00 0.00 53 1014.6
20260509134125 77 314 6.0 11.0 0.00 0.00 0.00 53 1014.7
20260509133809 77 19 6.0 11.0 0.00 0.00 0.00 53 1014.7
20260509133127 77 321 6.0 13.0 0.00 0.00 0.00 53 1014.7
20260509132809 77 25 6.0 12.0 0.00 0.00 0.00 55 1014.7
20260509132122 77 9 5.0 12.0 0.00 0.00 0.00 55 1014.7
20260509131121 78 331 6.0 13.0 0.00 0.00 0.00 56 1014.6
20260509130808 78 39 5.0 13.0 0.00 0.00 0.00 57 1014.7
20260509130115 78 5 6.0 11.0 0.00 0.00 0.00 57 1014.7
20260509125802 78 318 5.0 10.0 0.00 0.00 0.00 58 1014.8
20260509125115 78 347 5.0 11.0 0.00 0.00 0.00 58 1014.8
20260509123805 79 339 4.0 8.0 0.00 0.00 0.00 56 1014.8
20260509123116 79 23 4.0 9.0 0.00 0.00 0.00 56 1014.7
20260509122801 79 338 4.0 9.0 0.00 0.00 0.00 55 1014.8
20260509122112 79 355 4.0 10.0 0.00 0.00 0.00 55 1014.7
20260509121758 79 336 3.0 10.0 0.00 0.00 0.00 54 1014.7
20260509121112 79 350 3.0 7.0 0.00 0.00 0.00 55 1014.7
20260509120800 79 0 3.0 9.0 0.00 0.00 0.00 54 1014.8
20260509120116 79 12 3.0 9.0 0.00 0.00 0.00 53 1014.8
20260509115110 79 355 4.0 10.0 0.00 0.00 0.00 53 1014.7
20260509114752 78 21 3.0 10.0 0.00 0.00 0.00 53 1014.9
20260509114114 78 355 2.0 6.0 0.00 0.00 0.00 52 1014.9
20260509113750 78 43 2.0 5.0 0.00 0.00 0.00 52 1014.9
20260509113111 78 280 3.0 9.0 0.00 0.00 0.00 52 1015.1
20260509112749 79 32 3.0 9.0 0.00 0.00 0.00 51 1015.0
20260509112113 79 0 4.0 9.0 0.00 0.00 0.00 51 1015.1
20260509111748 78 30 4.0 9.0 0.00 0.00 0.00 51 1015.2
20260509110742 78 21 3.0 10.0 0.00 0.00 0.00 50 1015.3
20260509110111 79 25 2.0 8.0 0.00 0.00 0.00 50 1015.3
20260509105744 78 0 1.0 7.0 0.00 0.00 0.00 49 1015.3
20260509105108 79 0 2.0 7.0 0.00 0.00 0.00 49 1015.3
20260509104743 78 24 2.0 9.0 0.00 0.00 0.00 50 1015.4
20260509104109 78 355 2.0 9.0 0.00 0.00 0.00 52 1015.5
20260509103741 78 26 3.0 9.0 0.00 0.00 0.00 51 1015.5
20260509103108 78 345 3.0 8.0 0.00 0.00 0.00 52 1015.4
20260509102741 77 14 3.0 9.0 0.00 0.00 0.00 52 1015.4
20260509101737 78 274 2.0 8.0 0.00 0.00 0.00 53 1015.5
20260509100106 77 336 3.0 10.0 0.00 0.00 0.00 54 1015.7
20260509095059 78 304 4.0 9.0 0.00 0.00 0.00 54 1015.8
20260509094055 77 22 3.0 10.0 0.00 0.00 0.00 53 1015.8
20260509093053 77 332 3.0 9.0 0.00 0.00 0.00 53 1016.0
20260509092728 77 332 3.0 11.0 0.00 0.00 0.00 52 1015.9
20260509091054 77 340 3.0 8.0 0.00 0.00 0.00 50 1016.0
20260509090729 77 340 4.0 9.0 0.00 0.00 0.00 53 1016.0
20260509090053 77 296 4.0 9.0 0.00 0.00 0.00 52 1016.0
20260509085724 78 11 4.0 9.0 0.00 0.00 0.00 51 1016.0
20260509085053 79 5 2.0 8.0 0.00 0.00 0.00 50 1016.0
20260509084721 78 332 0.0 6.0 0.00 0.00 0.00 45 1016.0
20260509084051 78 160 0.0 3.0 0.00 0.00 0.00 39 1016.1
20260509083722 78 135 0.0 3.0 0.00 0.00 0.00 39 1016.1
20260509083050 78 217 0.0 4.0 0.00 0.00 0.00 40 1016.2
20260509082719 77 214 0.0 4.0 0.00 0.00 0.00 40 1016.2
20260509082048 77 214 0.0 4.0 0.00 0.00 0.00 40 1016.2
20260509081720 77 192 0.0 3.0 0.00 0.00 0.00 42 1016.2
20260509081049 76 176 0.0 3.0 0.00 0.00 0.00 42 1016.1
20260509080719 75 224 0.0 3.0 0.00 0.00 0.00 43 1016.1
20260509080045 75 147 1.0 3.0 0.00 0.00 0.00 43 1016.1
20260509075717 75 147 1.0 4.0 0.00 0.00 0.00 43 1016.1
20260509075048 74 161 1.0 4.0 0.00 0.00 0.00 45 1016.2
20260509074045 74 133 1.0 4.0 0.00 0.00 0.00 44 1016.2
20260509073710 74 136 1.0 4.0 0.00 0.00 0.00 43 1016.1
20260509073040 75 136 0.0 5.0 0.00 0.00 0.00 44 1016.2
20260509072706 75 126 1.0 5.0 0.00 0.00 0.00 44 1016.2
20260509072038 74 148 1.0 4.0 0.00 0.00 0.00 46 1016.0
20260509071707 74 160 1.0 5.0 0.00 0.00 0.00 45 1016.0
20260509071037 74 135 1.0 5.0 0.00 0.00 0.00 46 1016.0
20260509070703 74 141 1.0 7.0 0.00 0.00 0.00 45 1016.0
20260509065703 73 143 0.0 4.0 0.00 0.00 0.00 46 1015.9
20260509065039 74 69 0.0 3.0 0.00 0.00 0.00 44 1016.0
20260509064703 73 183 0.0 4.0 0.00 0.00 0.00 46 1015.9
20260509064032 73 196 0.0 4.0 0.00 0.00 0.00 45 1016.0
20260509063705 73 122 1.0 4.0 0.00 0.00 0.00 46 1016.0
20260509063028 73 123 1.0 4.0 0.00 0.00 0.00 45 1016.0
20260509062029 72 127 0.0 3.0 0.00 0.00 0.00 48 1016.0
20260509061029 71 130 0.0 3.0 0.00 0.00 0.00 48 1016.0
20260509060654 71 143 0.0 3.0 0.00 0.00 0.00 48 1016.0
20260509055653 70 342 1.0 4.0 0.00 0.00 0.00 50 1016.2
20260509055021 70 0 1.0 4.0 0.00 0.00 0.00 50 1016.2
20260509054646 69 95 1.0 4.0 0.00 0.00 0.00 52 1016.2
20260509054015 69 21 0.0 4.0 0.00 0.00 0.00 52 1016.1
20260509053012 68 96 0.0 4.0 0.00 0.00 0.00 56 1016.0
20260509052651 67 96 0.0 4.0 0.00 0.00 0.00 57 1016.0
20260509052011 66 29 1.0 4.0 0.00 0.00 0.00 58 1016.0
20260509051644 65 28 1.0 5.0 0.00 0.00 0.00 62 1016.0
20260509051012 65 19 0.0 5.0 0.00 0.00 0.00 69 1016.1
20260509050645 64 121 0.0 2.0 0.00 0.00 0.00 73 1016.0
20260509045647 62 111 0.0 3.0 0.00 0.00 0.00 80 1016.0
20260509045008 62 284 0.0 2.0 0.00 0.00 0.00 84 1016.1
20260509044640 61 284 0.0 2.0 0.00 0.00 0.00 86 1016.0
20260509044004 60 284 0.0 2.0 0.00 0.00 0.00 86 1015.9
20260509043006 60 355 0.0 3.0 0.00 0.00 0.00 87 1015.9
20260509042637 60 355 0.0 3.0 0.00 0.00 0.00 88 1015.9
20260509042007 59 355 0.0 2.0 0.00 0.00 0.00 87 1015.8
20260509040635 59 355 0.0 2.0 0.00 0.00 0.00 89 1015.9
20260509035957 58 355 0.0 2.0 0.00 0.00 0.00 88 1015.9
20260509034951 58 355 0.0 2.0 0.00 0.00 0.00 88 1015.7
20260509034632 58 355 0.0 1.0 0.00 0.00 0.00 87 1015.7
20260509033953 58 355 0.0 1.0 0.00 0.00 0.00 87 1015.7
20260509033630 57 355 0.0 2.0 0.00 0.00 0.00 87 1015.5
20260509032943 57 355 0.0 2.0 0.00 0.00 0.00 87 1015.5
20260509031938 57 355 0.0 2.0 0.00 0.00 0.00 87 1015.5
20260509031623 57 355 0.0 1.0 0.00 0.00 0.00 87 1015.5
20260509030935 57 355 0.0 2.0 0.00 0.00 0.00 86 1015.5
20260509030620 57 355 0.0 2.0 0.00 0.00 0.00 86 1015.4
20260509025928 57 355 0.0 2.0 0.00 0.00 0.00 86 1015.7
20260509025616 57 355 0.0 1.0 0.00 0.00 0.00 86 1015.5
20260509024926 57 355 0.0 2.0 0.00 0.00 0.00 86 1015.5
20260509024612 58 355 1.0 3.0 0.00 0.00 0.00 86 1015.5
20260509023914 58 355 1.0 3.0 0.00 0.00 0.00 85 1015.4
20260509022916 58 355 2.0 5.0 0.00 0.00 0.00 84 1015.7
20260509022614 58 355 2.0 5.0 0.00 0.00 0.00 84 1015.7
20260509021906 58 355 2.0 5.0 0.00 0.00 0.00 83 1015.5
20260509021610 58 355 2.0 5.0 0.00 0.00 0.00 82 1015.5
20260509020906 59 355 2.0 5.0 0.00 0.00 0.00 81 1015.7
20260509020609 59 355 3.0 5.0 0.00 0.00 0.00 81 1015.3
20260509015607 60 16 2.0 5.0 0.00 0.00 0.00 79 1015.4
20260509014903 60 327 2.0 6.0 0.00 0.00 0.00 78 1015.4
20260509014602 60 0 3.0 6.0 0.00 0.00 0.00 77 1015.4
20260509013903 60 318 3.0 6.0 0.00 0.00 0.00 76 1015.5
20260509012900 61 301 3.0 6.0 0.00 0.00 0.00 74 1015.7
20260509012558 61 327 3.0 6.0 0.00 0.00 0.00 72 1015.7
20260509011900 61 332 3.0 6.0 0.00 0.00 0.00 71 1015.7
20260509011601 61 0 3.0 5.0 0.00 0.00 0.00 69 1015.7
20260509010852 62 355 4.0 6.0 0.00 0.00 0.00 67 1015.7
20260509010558 62 5 3.0 6.0 0.00 0.00 0.00 66 1015.7
20260509005851 62 327 2.0 6.0 0.00 0.00 0.00 64 1015.8
20260509005559 62 330 2.0 6.0 0.00 0.00 0.00 63 1015.8
20260509004552 62 335 2.0 5.0 0.00 0.00 0.00 60 1015.5
20260509003842 62 321 2.0 8.0 0.00 0.00 0.00 59 1015.7
20260509003548 62 292 3.0 8.0 0.00 0.00 0.00 58 1015.7
20260509002842 62 311 2.0 6.0 0.00 0.00 0.00 57 1015.7
20260509002547 62 346 2.0 5.0 0.00 0.00 0.00 57 1015.7
20260509001839 62 5 1.0 2.0 0.00 0.00 0.00 56 1015.8
20260509001545 62 5 1.0 2.0 0.00 0.00 0.00 56 1015.5
20260509000838 62 5 0.0 2.0 0.00 0.00 0.00 56 1015.4
20260509000545 62 5 0.0 0.0 0.00 0.00 0.00 55 1015.4
20260508234819 63 5 1.0 2.0 0.00 0.00 0.00 55 1015.2
20260508234540 63 5 0.0 2.0 0.00 0.00 0.00 55 1015.2
20260508233745 63 5 0.0 2.0 0.00 0.00 0.00 55 1015.2
20260508233535 63 5 1.0 3.0 0.00 0.00 0.00 55 1015.2
20260508232737 62 5 1.0 3.0 0.00 0.00 0.00 55 1015.2
20260508232533 62 5 2.0 4.0 0.00 0.00 0.00 55 1015.3
20260508231739 62 355 1.0 4.0 0.00 0.00 0.00 57 1015.3
20260508231530 62 330 1.0 4.0 0.00 0.00 0.00 58 1015.3
20260508230712 62 330 1.0 4.0 0.00 0.00 0.00 59 1015.3
20260508230206 62 329 0.0 2.0 0.00 0.00 0.00 59 1015.3
20260508225704 62 329 0.0 2.0 0.00 0.00 0.00 59 1015.4
20260508225202 62 329 0.0 2.0 0.00 0.00 0.00 59 1015.4
20260508224705 62 329 1.0 3.0 0.00 0.00 0.00 59 1015.4
20260508224200 62 329 0.0 3.0 0.00 0.00 0.00 58 1015.4
20260508223700 62 329 0.0 3.0 0.00 0.00 0.00 58 1015.7
20260508223203 62 329 0.0 3.0 0.00 0.00 0.00 58 1015.7
20260508222656 63 326 0.0 1.0 0.00 0.00 0.00 58 1015.8
20260508221640 63 326 0.0 2.0 0.00 0.00 0.00 58 1015.9
20260508221140 63 326 0.0 2.0 0.00 0.00 0.00 58 1015.9
20260508215636 63 326 0.0 2.0 0.00 0.00 0.00 58 1016.1
20260508215123 63 326 0.0 2.0 0.00 0.00 0.00 58 1016.0
20260508214624 63 326 1.0 3.0 0.00 0.00 0.00 58 1016.2
20260508214123 63 326 0.0 3.0 0.00 0.00 0.00 58 1016.2
20260508213606 63 324 0.0 3.0 0.00 0.00 0.00 59 1016.2
20260508213109 63 323 1.0 3.0 0.00 0.00 0.00 59 1016.3
20260508212106 63 331 1.0 4.0 0.00 0.00 0.00 60 1016.3
20260508211106 63 333 2.0 5.0 0.00 0.00 0.00 61 1016.5
20260508210606 63 328 2.0 5.0 0.00 0.00 0.00 62 1016.5
20260508210108 63 338 2.0 5.0 0.00 0.00 0.00 62 1016.5
20260508205607 63 346 2.0 5.0 0.00 0.00 0.00 63 1016.5